Home   Weather   Hamilton   Past weeks
Flag for Bermuda

Past Weather in Hamilton, Bermuda — Yesterday and Last 2 Weeks

Now
61 °F

Passing clouds.


Feels Like: 61 °F
Forecast: 67 / 60 °F
Wind: 12 mph from Southeast

Location: Bermuda

Current Time: Jan 24, 2019 at 4:39:46 am

Latest Report: Jan 24, 2019 at 3:55 am


Visibility: N/A

Pressure: 30.39 "Hg

Humidity: 55%

Dew Point: 45 °F

Location of HamiltonLocation

Past Weather in Hamilton — Graph

°F

Hamilton Temperature Yesterday

Maximum temperature yesterday: 61 °F (at 10:55 am)
Minimum temperature yesterday: 57 °F (at 12:55 am)
Average temperature yesterday: 59 °F

High & Low Weather Summary for the Past Weeks

 TemperatureHumidityPressure
High72 °F (Jan 20, 11:55 am)100% (Jan 10, 12:55 am)30.54 "Hg (Jan 10, 12:55 am)
Low54 °F (Jan 22, 11:55 am)45% (Jan 23, 10:55 am)29.62 "Hg (Jan 10, 3:55 am)
Average64 °F71%30.09 "Hg
* Reported Jan 9 2:55 am — Jan 24 2:55 am, Hamilton. Weather by CustomWeather, © 2019

Note: Actual official high and low records may vary slightly from our data, if they occured in-between our weather recording intervals... More about our weather records

Advertising

Hamilton Weather History for the Previous 24 Hours

Scroll right to see more
 ConditionsComfort  
Time TempWeatherWind HumidityBarometerVisibility
2:55 am
Thu, Jan 24
61 °FPassing clouds.8 mph59%30.42 "HgN/A
1:55 am61 °FPassing clouds.7 mph59%30.42 "HgN/A
12:55 am59 °FPassing clouds.8 mph59%30.45 "HgN/A
11:55 pm
Wed, Jan 23
59 °FPassing clouds.6 mph63%30.45 "HgN/A
10:55 pm61 °FPassing clouds.8 mph52%30.48 "HgN/A
9:55 pm59 °FPassing clouds.7 mph55%30.48 "HgN/A
8:55 pm59 °FPassing clouds.6 mph55%30.48 "HgN/A
7:55 pm59 °FPassing clouds.7 mph55%30.51 "HgN/A
6:55 pm59 °FPassing clouds.6 mph55%30.48 "HgN/A
5:55 pm59 °FPassing clouds.7 mph59%30.48 "HgN/A
4:55 pm59 °FBroken clouds.8 mph63%30.48 "HgN/A
3:55 pm61 °FScattered showers. Broken clouds.12 mph59%30.48 "HgN/A
2:55 pm59 °FBroken clouds.7 mph63%30.48 "HgN/A
2:33 pm59 °FScattered showers. Broken clouds.12 mph68%30.48 "HgN/A
1:55 pm61 °FScattered showers. Broken clouds.7 mph59%30.48 "HgN/A
12:55 pm59 °FScattered showers. Broken clouds.12 mph63%30.51 "HgN/A
11:55 am61 °FPartly sunny.8 mph48%30.54 "HgN/A
10:55 am61 °FPartly sunny.9 mph45%30.54 "HgN/A
9:55 am59 °FPartly sunny.12 mph51%30.54 "HgN/A
8:55 am59 °FPartly sunny.12 mph51%30.54 "HgN/A
7:55 am57 °FPartly sunny.10 mph55%30.51 "HgN/A
6:55 am57 °FPassing clouds.14 mph51%30.51 "HgN/A
5:55 am57 °FScattered showers. Passing clouds.15 mph55%30.48 "HgN/A
4:55 am57 °FScattered showers. Passing clouds.13 mph55%30.48 "HgN/A
Weather by CustomWeather, © 2019

See weather overview